Location: Schoeneck
(50.3760°N, 12.3330°E)
Time: 20:47:37
(UTC+02:00)

ISS - Visible Passes

Search period start: 25 July 2017 00:00
Search period end: 04 August 2017 00:00
Orbit: 400 x 408 km, 51.6° (Epoch: 25 July)

Date Brightness Start Highest point End Pass type
(mag) Time Alt. Az. Time Alt. Az. Time Alt. Az.
25 Jul -3.8 00:07:56 10° W 00:11:12 77° N 00:14:27 10° ENE visible
25 Jul -3.8 01:44:32 10° WNW 01:47:48 78° N 01:51:03 10° E visible
25 Jul -3.4 03:21:06 10° W 03:24:09 37° SSW 03:27:12 10° SE visible
25 Jul -2.7 21:39:57 10° SSW 21:42:39 24° SE 21:45:22 10° E visible
25 Jul -4.0 23:15:35 10° WSW 23:18:51 86° SSE 23:22:07 10° ENE visible
26 Jul -3.6 00:52:10 10° W 00:55:26 69° N 00:56:43 33° E visible
26 Jul -1.5 02:28:42 10° WNW 02:29:16 14° W 02:29:16 14° W visible
26 Jul -3.9 22:23:18 10° WSW 22:26:31 63° SSE 22:29:45 10° ENE visible
26 Jul -3.6 23:59:47 10° W 00:03:02 68° N 00:05:18 18° E visible
27 Jul -2.2 01:36:20 10° WNW 01:37:54 26° WNW 01:37:54 26° WNW visible
27 Jul -3.7 23:07:23 10° W 23:10:38 74° N 23:13:53 10° ENE visible
28 Jul -3.7 00:43:58 10° WNW 00:46:54 69° WNW 00:46:54 69° WNW visible
28 Jul -3.9 22:14:58 10° WSW 22:18:14 87° NNW 22:21:31 10° ENE visible
28 Jul -3.7 23:51:34 10° W 23:54:50 71° N 23:56:01 35° E visible
29 Jul -1.3 01:28:06 10° WNW 01:28:38 14° W 01:28:38 14° W visible
29 Jul -3.5 22:59:09 10° W 23:02:24 67° N 23:05:12 13° E visible
30 Jul -2.8 00:35:41 10° WNW 00:37:49 37° W 00:37:49 37° W visible
30 Jul -3.6 22:06:43 10° W 22:09:57 71° N 22:13:13 10° E visible
30 Jul -3.9 23:43:16 10° WNW 23:46:32 88° N 23:47:01 63° E visible
31 Jul -3.7 22:50:51 10° WNW 22:54:07 74° N 22:56:14 20° E visible
01 Aug -2.0 00:27:24 10° W 00:28:51 23° W 00:28:51 23° W visible
01 Aug -3.5 21:58:24 10° W 22:01:39 68° N 22:04:54 10° E visible
01 Aug -3.9 23:34:56 10° WNW 23:38:06 63° SSW 23:38:06 63° SSW visible
02 Aug -3.9 22:42:29 10° WNW 22:45:45 85° SSW 22:47:21 27° ESE visible
03 Aug -1.4 00:19:13 10° W 00:19:58 14° W 00:19:58 14° W visible
03 Aug -3.7 21:50:01 10° WNW 21:53:17 78° N 21:56:33 10° E visible
03 Aug -2.9 23:26:35 10° W 23:29:15 35° SW 23:29:15 35° SW visible
